Overview Statistics Trail Chart Weather Telemetry Raw packets
 

This is the latest recevied weather packets stored in our database for station/object PA1CD-13. If no packets are shown the sender has not sent any weather packets the latest 10 day(s).

<< 6 7 8 9 10 11 12 >>
Time Temp. Humidity Pressure Rain* Wind** Luminosity Snow
1788600608 19.44° C 65% 1016.7 hPa 0 mm - 325 W/m² -
1788600485 19.44° C 65% 1016.5 hPa 0 mm - 139 W/m² -
1788600365 19.44° C 64% 1016.5 hPa 0 mm - 642 W/m² -
1788600246 19.44° C 65% 1016.6 hPa 0 mm - 571 W/m² -
1788600125 19.44° C 65% 1016.5 hPa 0 mm - 571 W/m² -
1788600006 19.44° C 65% 1016.4 hPa 0 mm - 568 W/m² -
1788599885 19.44° C 66% 1016.5 hPa 0 mm - 573 W/m² -
1788599773 19.44° C 66% 1016.4 hPa 0 mm - 603 W/m² -
1788599646 18.89° C 64% 1016.3 hPa 0 mm - 566 W/m² -
1788599526 18.89° C 64% 1016.3 hPa 0 mm - 566 W/m² -
1788599406 18.89° C 63% 1016.4 hPa 0 mm - 550 W/m² -
1788599285 18.89° C 67% 1016.3 hPa 0 mm - 540 W/m² -
1788599165 18.89° C 67% 1016.3 hPa 0 mm - 461 W/m² -
1788599046 18.89° C 67% 1016.2 hPa 0 mm - 526 W/m² -
1788598925 18.89° C 67% 1016.3 hPa 0 mm - 526 W/m² -
1788598808 18.89° C 67% 1016.4 hPa 0 mm - 295 W/m² -
1788598686 18.89° C 68% 1016.2 hPa 0 mm - 528 W/m² -
1788598565 18.89° C 69% 1016.1 hPa 0 mm - 433 W/m² -
1788598446 18.89° C 70% 1016.2 hPa 0 mm - 111 W/m² -
1788598326 18.89° C 70% 1016.3 hPa 0 mm - 264 W/m² -
1788598205 18.33° C 70% 1016.1 hPa 0 mm - 264 W/m² -
1788598086 18.33° C 69% 1016.1 hPa 0 mm - 573 W/m² -
1788597965 18.33° C 68% 1016 hPa 0 mm - 506 W/m² -
1788597846 18.33° C 68% 1016 hPa 0 mm - 257 W/m² -
1788597725 18.33° C 67% 1016 hPa 0 mm - 121 W/m² -

* Rain latest hour (hover to see other rain measurements)
** Current wind speed in m/s (hover to see current wind gust speed)